SL-8 DEB, 57165

Orbit data source: Space-Track

SL-8 DEB, 57165 is space debris in LEO originally from a launch on Wed, 12 Oct 1983 UTC launched from the Plesetsk Missile And Space Complex (PKMTR). Debris objects in space refer to the collection of defunct objects orbiting the Earth. Examples of debris include non-operational satellites, rocket bodies, and fragments generated from explosions, collisions, or faulty payload assembly.

Loading next visibility...
Identifier
57165, 1983-103C
Orbit
LEO
Country
Flag of CISCIS
Related business
Manufacturer
Unknown
Mission
Spacecraft
Bus & Motor
Unknown
Mass
Unknown
Launch date (UTC)
1983-10-12 (43 years ago)
Launch vehicle
Unknown
Launch site
Plesetsk Missile And Space Complex (PKMTR)
Object type
Payload
Rocket body
Debris
Shape & HBR
Unknown shape, 0.1 m
Radar Cross Section
Small (<0.1 m²)

Expand to show TLE details & history
Last TLE update: 1 week ago

TLE from 1 week ago
0 SL-8 DEB
1 57165U 83103C   26165.84179879  .00000146  00000-0  58720-4 0  9999
2 57165  74.0496   9.8396 0020615 121.1931 239.1246 14.36381812658219
Epoch: 2026-06-14T20:12Z
TLE epoch observation values (Epoch: 2026-06-14T20:12:11.415Z)
Latitude
-0.00007°
Longitude
163.65527°
Altitude
780.677 km
Speed
7.46 km/s
True Right ascension
00h 39m 21s
True Declination
0° 00' 00"
Sunlit
Object was in daylight at epoch
Visualization orbit readout
Latitude
Unknown
Longitude
Unknown
Altitude
Unknown
Speed
Unknown
Apparent Right ascension
Unknown
Apparent Declination
Unknown
Sunlit
N/A
Visualization observer readout
Local Sidereal Time
21:31:27
Azimuth
Unknown
Elevation
Unknown
Doppler factor
Unknown
Orbital elements
Apogee altitude
782.832 km
Perigee altitude
753.368 km
Semi-major axis
7,146.237 km
Eccentricity
0.00206
Inclination
74.0496°
RAAN
9.8396°
Arg. of periapsis
121.1931°
True anomaly
238.92212°
Mean anomaly
239.1246°
Eccentric anomaly
239.02333°
Mean motion
3.59275 °/min
Orbital period
100.2 mins
BSTAR
0.00005872
Loading maneuver chart data...
Computing Atmospheric mass density...
Loading historical data...
Loading historical data...
Loading historical data...
Loading historical data...
Loading historical data...
Loading historical data...
Loading historical data...
Other satellites on launch #103 in the year 1983 (1983-10-12 UTC)

Documentation

Showing up to 5 results
|